{"data":{"norad_id":56690,"intl_designator":"2023-067C","name":"STARLINK-30124","alt_names":[],"object_type":"PAYLOAD","status":"ACTIVE","operator":null,"country":"US","launch_date":"2023-05-19","launch_site_code":"AFETR","launch_vehicle":null,"mission":null,"orbit_class":"UNKNOWN","rcs_meters":null,"size_class":null,"mass_kg":null,"dimensions":null,"purposes":["comms"],"wikipedia_slug":null,"has_3d_model":false,"image_url":null,"decayed_at":null,"tle_current":{"epoch":"2026-05-25T05:17:01.372128Z","epoch_age_seconds":46287,"freshness":"FRESH","line1":"1 56690U 23067C   26145.22015477  .00001701  00000+0  71318-4 0  9992","line2":"2 56690  43.0044 209.1239 0002186 270.5783  89.4818 15.27583882167289","mean_motion":15.27583882,"eccentricity":0.0002186,"inclination_deg":43.0044,"raan_deg":209.1239,"arg_perigee_deg":270.5783,"mean_anomaly_deg":89.4818,"bstar":7.1318e-5,"rev_number":16728,"period_min":94.266509156582,"perigee_km":481.53761922016,"apogee_km":484.5373246993,"semimajor_km":6861.1744719597,"source":"CELESTRAK","updated_at":"2026-05-25T13:38:18.119379Z"}}}